Terminal Aerodrome Forecast
Issued by NWS

Home | Current Version | Previous Version | Text Only | Print | Product List | Glossary On
Versions: 1 2 3 4 5 6 7 8 9 10 11 12 13 14 15 16 17 18 19 20 21 22 23 24
000
FTUS44 KTSA 191500 AAB
TAFBVO
TAF AMD
KBVO 191515Z 1915/2012 29010KT P6SM VCSH BKN080
      TEMPO 1916/1920 3SM TSRA BR BKN035CB
     FM192200 34013G22KT P6SM BKN050
     FM200400 35010G17KT P6SM SKC=

USA.gov is the U.S. government's official web portal to all federal, state and local government web resources and services.